Theta_e
302 296 293 295 296 297 295 293 292 295 299 297 294 295 297 300 298 299 300 300 301 302 315 318 318 319 318 318 317 318 317 316 318 315 315 315 314 314 316 317 318 319 321 322
297 292 300 302 301 298 297 293 292 295 298 295 294 293 296 299 299 303 302 302 303 308 313 315 317 317 317 316 316 317 317 316 318 315 316 317 314 314 316 315 316 318 320 321
294 298 305 302 298 296 293 293 292 292 296 295 294 291 295 300 303 305 305 306 306 307 309 311 314 314 314 315 316 317 316 316 318 317 315 314 312 312 312 313 315 317 319 321
297 303 303 299 298 296 291 298 297 296 291 286 293 283 292 295 299 302 303 304 305 305 307 308 310 311 312 313 315 314 315 315 317 316 313 311 310 309 310 312 314 315 316 319
298 300 299 297 297 299 295 299 295 295 290 286 289 285 289 295 295 297 301 305 304 305 306 307 309 312 314 314 313 313 313 314 315 315 314 312 311 312 312 312 311 311 314 316
299 304 301 299 302 301 300 295 293 290 287 282 287 287 285 291 295 297 300 304 306 306 306 307 308 311 313 315 316 317 314 313 314 314 315 313 312 310 311 309 309 310 310 314
297 298 301 303 297 298 295 288 280 280 279 280 289 287 287 296 298 299 300 303 306 306 307 307 308 309 311 314 317 319 318 317 315 314 314 314 312 312 310 309 308 309 311 309
290 290 298 301 297 292 291 288 280 277 277 283 289 284 288 298 300 301 302 303 306 304 305 307 308 310 310 313 313 315 315 316 315 314 313 312 312 310 310 309 311 309 309 311
289 292 299 299 300 298 292 286 291 284 285 281 285 289 295 298 298 299 300 301 301 303 304 306 308 308 309 310 311 312 312 312 312 312 312 309 309 310 309 310 309 310 310 312
294 286 296 300 300 299 293 295 284 284 278 278 283 286 287 292 294 295 296 298 299 301 302 303 304 306 308 308 308 307 309 310 308 309 308 309 308 309 309 309 307 307 307 309
295 289 290 296 292 291 291 288 289 287 285 280 280 282 294 292 293 293 295 299 299 300 302 302 302 303 304 303 306 306 305 303 303 305 305 305 306 307 306 305 305 306 306 307
295 290 285 291 296 297 294 290 289 283 282 284 284 282 295 296 295 297 298 298 297 298 298 302 301 302 301 301 301 302 303 303 303 304 303 303 303 304 303 303 304 304 303 304
293 284 277 283 289 294 293 295 292 289 285 282 277 281 296 296 296 297 295 296 296 297 298 299 299 299 299 300 301 302 302 302 303 303 302 301 301 301 301 301 301 302 302 302
299 287 285 280 286 291 289 293 293 289 285 285 284 289 292 294 295 296 296 295 295 296 297 297 296 297 298 300 302 302 301 301 301 301 300 299 299 300 300 300 300 301 301 302
293 287 289 292 295 294 293 292 292 290 290 283 286 288 291 293 293 294 295 296 296 297 297 297 298 298 299 299 300 301 300 300 300 300 299 299 299 299 300 299 299 300 301 302
293 287 290 289 295 294 291 293 293 293 293 291 291 289 295 295 295 295 296 297 297 297 297 298 299 299 298 298 299 300 300 300 300 299 299 300 299 299 299 299 299 298 299 299
290 289 286 284 292 291 282 291 292 292 294 291 285 290 293 294 295 296 296 297 296 296 298 298 297 297 297 297 298 299 299 299 299 298 299 300 300 300 300 300 301 298 296 298
290 290 290 284 286 277 288 296 296 293 294 294 293 293 294 295 297 297 298 297 298 298 297 296 296 295 296 296 297 297 298 298 299 300 300 300 302 302 302 301 300 298 297 300
295 296 286 280 281 287 291 294 288 285 289 294 291 294 296 297 296 296 297 300 298 296 296 296 296 296 296 296 298 297 297 297 298 298 298 299 300 299 299 299 299 296 299 300
296 293 287 282 278 276 287 296 299 295 279 294 295 294 294 294 288 292 298 298 296 296 296 295 296 296 296 297 297 296 296 296 296 297 298 299 300 299 299 298 297 300 301 301
285 285 283 281 278 284 294 297 298 281 281 294 295 294 293 292 295 298 297 295 295 295 294 296 296 295 296 297 297 295 295 295 297 299 299 299 300 299 299 299 300 300 300 302
284 279 279 280 278 277 297 295 288 291 293 295 294 294 294 295 295 295 294 294 293 293 294 295 295 295 296 296 296 294 294 297 298 298 298 298 299 299 300 299 300 301 302 305
282 287 282 287 284 293 298 296 297 295 294 295 294 296 294 293 293 293 293 293 293 293 294 296 295 295 296 296 296 294 295 297 297 297 297 298 299 300 300 299 300 301 305 303
289 293 287 288 293 294 296 297 297 297 296 298 297 295 293 291 292 292 293 292 293 294 294 295 295 294 294 296 297 296 297 298 297 296 297 298 299 299 301 303 303 305 303 302
290 293 291 289 292 294 295 297 296 298 298 297 296 295 293 291 291 292 292 293 293 294 295 296 294 294 295 297 298 298 298 298 297 297 298 298 300 302 299 295 295 303 302 303
293 291 286 285 293 291 293 296 300 296 295 295 294 293 293 291 292 293 293 293 294 294 295 294 295 295 296 298 301 301 300 299 298 297 297 298 300 301 300 298 296 293 294 295
Wind_Speed
6 5 4 5 5 4 3 1 3 4 6 6 1 7 8 9 6 9 11 10 9 7 14 17 15 14 12 10 10 9 9 7 5 4 4 4 2 3 4 4 6 7 7 8
9 1 4 8 2 4 7 5 4 4 6 5 8 7 6 7 13 21 17 16 8 8 16 17 14 12 11 9 9 9 8 8 7 5 3 3 1 3 3 4 5 5 7 7
2 6 10 7 5 7 3 5 2 3 5 5 6 6 9 10 16 22 25 23 21 13 9 4 2 5 7 10 9 9 8 9 7 7 3 0 2 2 3 3 3 5 6 8
3 7 11 8 0 3 3 4 2 6 7 2 3 7 7 6 16 19 16 18 20 20 16 15 15 11 8 7 7 6 6 7 4 7 4 4 2 2 3 2 3 5 5 5
7 7 10 8 4 2 1 5 3 2 3 4 7 4 5 7 11 9 7 10 10 10 12 12 12 11 9 12 9 8 7 6 1 3 5 5 5 4 3 2 5 4 4 4
4 3 9 4 5 5 4 8 8 6 3 4 2 3 6 3 4 2 4 7 8 7 6 6 5 5 4 5 6 6 7 7 7 5 6 7 7 6 3 4 4 4 2 2
5 3 1 10 8 9 10 8 6 6 6 5 4 4 6 5 4 3 5 6 5 5 6 7 8 6 4 3 1 3 5 6 9 9 7 7 8 7 5 5 4 4 3 2
3 8 4 7 2 3 2 7 6 4 4 9 5 4 6 2 6 4 5 4 4 3 3 3 1 5 4 7 6 8 7 8 9 8 8 8 8 5 4 5 4 3 1 2
2 5 8 7 4 2 7 5 5 3 3 2 4 3 4 10 8 7 5 7 7 6 5 2 4 1 4 7 9 8 7 9 9 11 9 8 7 6 6 5 3 2 2 2
0 3 4 7 7 5 3 4 7 5 5 6 4 2 5 10 8 10 9 5 5 7 8 9 6 3 5 7 8 7 8 10 10 7 4 5 6 5 3 3 4 4 4 3
2 5 7 5 3 3 8 7 4 3 3 1 4 5 5 5 5 8 8 5 7 7 7 8 8 9 8 7 7 7 6 4 5 5 4 5 5 4 3 3 4 4 3 5
0 5 1 6 9 3 3 2 3 3 6 5 3 6 6 9 7 11 9 9 9 8 8 7 7 7 6 6 6 4 5 4 4 4 4 4 5 5 5 5 5 4 5 5
3 3 4 9 8 7 6 9 8 3 4 4 3 7 6 6 6 6 8 9 7 8 10 10 9 7 6 6 6 7 7 7 7 6 6 6 7 6 7 7 7 5 6 7
8 3 7 7 9 5 6 10 9 4 3 4 7 7 8 8 10 9 9 9 9 10 11 10 8 7 8 9 13 11 8 7 7 6 7 7 7 7 8 8 7 7 7 7
5 4 5 6 7 7 10 10 6 3 1 3 6 7 6 6 9 10 8 10 12 16 11 7 10 14 15 16 18 12 7 7 7 7 7 8 8 8 10 9 7 7 7 7
3 3 2 4 6 8 12 5 2 2 3 5 6 12 3 7 8 9 14 16 19 17 10 17 19 18 18 20 15 11 12 9 8 10 13 11 8 9 10 7 8 7 7 8
1 2 3 5 5 7 5 1 2 3 5 6 7 7 4 15 14 14 15 16 17 11 19 22 21 21 19 16 16 16 12 13 13 12 13 10 10 11 9 8 10 9 7 9
4 4 1 5 4 2 4 2 3 4 9 6 4 9 12 13 15 11 14 16 12 19 18 19 18 19 17 18 17 16 15 13 12 13 11 12 12 10 8 9 11 10 6 11
6 4 3 1 3 7 3 4 3 2 13 4 5 14 15 14 13 13 9 7 15 15 18 17 17 19 18 18 16 14 15 15 13 12 12 11 9 9 10 9 10 7 9 8
6 4 5 2 1 4 4 5 8 1 6 4 13 13 12 13 15 17 15 15 17 18 16 17 18 18 18 17 16 14 14 14 13 12 12 10 8 9 10 11 9 10 7 10
4 4 2 0 3 6 4 5 5 4 9 11 5 10 11 9 10 18 18 18 17 18 19 19 17 17 17 16 14 15 15 14 13 11 10 9 9 8 10 10 8 8 10 10
3 2 2 1 3 6 4 5 3 9 7 8 8 8 9 10 14 17 19 19 20 20 21 19 16 16 16 16 12 14 15 13 11 10 10 9 8 8 7 8 8 8 9 7
2 6 5 8 7 4 5 7 8 6 7 7 6 9 7 10 16 18 19 18 18 20 18 17 16 18 16 15 11 13 15 11 9 8 8 7 8 7 8 8 9 7 3 3
4 3 2 4 2 4 7 7 6 5 6 8 8 7 6 11 15 18 17 17 18 17 17 17 17 17 17 16 13 12 13 10 8 8 7 6 7 8 8 7 7 4 3 3
6 3 3 4 6 6 8 9 5 6 7 7 6 7 9 9 15 14 17 19 17 17 17 16 16 15 17 17 15 11 10 7 7 6 5 6 6 6 3 5 4 4 3 3
4 6 5 7 9 7 9 8 4 5 5 5 5 11 9 7 13 16 15 17 16 17 17 16 17 17 17 16 14 7 6 6 6 4 3 3 5 1 2 3 5 14 9 9
Wind_Direction
312 71 270 250 220 164 173 215 293 289 356 25 178 231 270 304 331 314 289 266 250 187 169 162 160 161 159 158 147 141 126 144 120 81 43 2 358 327 340 347 347 356 4 346
11 343 338 294 69 49 33 54 354 312 350 49 329 316 305 326 356 347 319 302 193 162 161 166 166 168 168 157 151 139 153 150 117 112 138 163 254 279 280 317 334 356 352 350
177 258 341 16 4 62 53 82 340 244 327 342 356 342 357 23 40 36 34 39 36 29 24 27 181 184 169 171 158 158 172 121 127 120 100 353 81 312 329 332 337 355 358 338
308 318 341 340 314 109 27 295 330 341 40 322 20 286 332 32 34 38 32 34 39 37 41 32 24 27 32 14 19 23 63 101 139 139 135 182 173 223 225 255 296 323 354 339
275 308 324 3 3 7 272 29 0 299 339 54 340 68 270 1 21 8 25 66 63 61 61 50 48 47 20 34 24 22 50 68 47 242 182 192 202 213 245 250 301 308 322 356
20 335 50 3 338 30 321 18 29 24 61 48 216 106 322 3 279 300 22 43 56 90 85 83 124 87 43 40 48 20 1 337 326 293 262 229 217 222 244 301 298 306 320 329
347 357 315 25 7 359 43 44 341 359 359 232 306 41 235 233 237 76 52 55 33 17 28 33 44 53 56 74 123 130 251 274 283 281 279 257 231 226 221 247 260 300 309 331
51 331 29 356 359 296 355 125 149 283 242 280 293 224 189 330 65 58 63 59 60 39 174 107 170 215 204 198 218 268 241 239 233 255 267 256 238 232 233 234 239 253 248 282
66 280 329 4 343 80 321 10 215 223 237 332 212 5 219 49 35 23 44 42 2 357 333 84 216 300 271 269 255 248 273 272 272 268 272 250 243 240 244 261 280 295 300 288
199 331 285 321 4 29 104 275 9 3 334 306 341 339 263 360 350 350 343 342 347 340 343 336 331 280 250 265 275 282 264 268 281 298 309 310 311 300 315 359 321 325 321 326
78 114 293 10 18 27 339 8 7 132 153 232 288 259 16 24 300 331 327 333 345 335 319 314 318 324 325 332 319 312 334 342 357 25 13 9 348 343 329 298 298 318 310 300
172 129 296 266 295 219 238 261 148 136 283 239 202 257 61 40 18 15 354 353 335 331 317 292 289 294 310 325 340 333 327 339 323 317 319 308 297 297 294 283 276 269 271 280
186 10 2 348 350 356 356 336 325 241 90 228 166 263 29 5 20 347 316 311 309 311 306 303 307 310 307 296 279 270 256 251 247 249 258 264 268 265 259 261 264 259 252 258
84 124 151 204 230 255 296 314 309 133 139 233 238 288 297 340 329 299 303 305 303 293 287 294 294 297 297 283 290 272 266 256 248 248 248 249 252 256 259 255 257 254 249 261
97 193 199 241 258 281 300 311 37 22 194 227 268 254 276 290 279 276 279 286 293 306 294 288 298 297 302 303 294 278 266 270 264 263 260 255 256 260 260 262 258 253 245 259
31 269 226 274 273 284 295 62 347 18 343 279 291 307 230 287 288 303 308 306 305 307 300 306 308 304 304 302 298 288 288 265 263 274 280 273 264 253 252 248 255 256 253 264
233 159 51 259 289 315 335 228 71 296 287 276 291 288 293 321 317 307 303 299 302 297 309 309 311 309 306 305 302 291 285 283 276 274 273 266 262 252 244 245 255 266 262 279
180 115 50 266 357 265 224 69 282 243 266 297 339 315 312 302 300 304 285 286 297 308 308 305 305 303 306 304 297 290 285 276 275 277 278 280 271 261 268 275 272 275 271 278
167 120 260 195 213 274 96 333 322 221 304 159 310 323 314 307 296 298 268 294 306 302 305 304 306 304 299 298 301 317 303 292 288 282 279 274 274 278 278 279 274 272 271 265
74 91 136 21 303 273 240 264 268 164 296 261 332 310 308 319 315 314 333 314 308 312 309 310 303 301 298 299 299 297 292 287 280 282 280 272 273 273 274 273 270 271 254 269
347 6 93 262 255 284 291 282 318 49 252 300 280 274 286 290 275 300 309 311 315 314 313 308 303 299 298 297 295 290 288 283 284 283 283 279 272 263 266 270 260 264 266 266
189 132 241 42 279 298 6 10 121 229 274 264 276 268 279 279 296 301 309 312 317 315 314 310 306 302 299 296 290 282 282 284 284 283 281 276 272 266 269 268 268 259 261 261
347 174 202 175 221 232 245 224 240 230 239 280 279 277 276 292 303 310 311 315 314 316 311 311 307 303 299 294 286 278 280 286 287 284 281 279 277 271 266 260 257 264 235 137
284 150 163 45 265 263 288 269 256 293 280 274 271 288 290 286 306 309 314 316 317 313 312 311 308 305 302 301 292 271 275 277 276 275 278 278 277 279 270 261 241 227 126 122
204 117 196 253 277 307 286 261 282 283 288 306 320 285 276 284 305 311 315 317 315 311 313 314 310 306 302 301 292 276 269 263 260 262 270 280 284 290 39 40 21 57 61 134
187 190 159 229 231 199 253 260 260 269 289 317 317 318 307 286 305 314 313 318 311 314 317 315 313 310 307 306 299 284 262 240 235 246 257 272 285 111 45 50 60 38 48 83